Voltar ao catálogo

COSMOS 1266

AtivoNavegaçãoLEO
NORAD 12409·PAYLOAD·🇷🇺 Russia

Lançado Apr 21, 1981 de Baikonur Cosmodrome

Loading…

Próximas Passagens (próximas 24 horas)

TLE

AtualizadoSource: Space-Track

Época: Sep 14, 2026, 18:56 UTC

1 12409U 81037A   26257.78929331 -.00000089  00000-0  24927-5 0  9996
2 12409  64.7607  76.8680 0050167 255.1350 104.4152 13.90619210305145

Acompanhe COSMOS 1266 em tempo real com AllMySat

Download on the App Store